Location: Saint Mary
(48.7436°N, 113.4291°W)
Time: 11:47:18
(UTC+00:00)

ARIANE 6 FM1 Upper Stage - Pass Details

Date: 16 December 2025
Orbit: 522 x 610 km, 62.0° (Epoch: 20 January)

Event Time Altitude Azimuth Distance (km) Brightness Sun altitude
Rises 14:31:00 0° 238° (WSW) 2,683 5.8 -7.9°
Reaches altitude 10° 14:33:16 10° 244° (WSW) 1,783 4.9 -7.6°
Maximum altitude 14:37:09 49° 320° (NW) 686 2.8 -7.0°
Drops below altitude 10° 14:41:01 10° 36° (NE) 1,769 5.3 -6.4°
Sets 14:43:16 0° 42° (NE) 2,659 6.3 -6.1°
